Regional Weather Roundup
Issued by NWS

Home | Current Version | Previous Version | Graphics & Text | Print | Product List | Glossary On
Versions: 1 2 3 4 5 6 7 8 9 10 11 12 13 14 15 16 17 18 19 20 21 22 23 24 25 26 27 28 29 30 31 32 33 34 35 36 37 38 39 40 41 42 43 44 45 46 47 48 49 50
000
ASUS44 KMEG 252310
RWRTN
TENNESSEE HOURLY STATE WEATHER ROUNDUP
NATIONAL WEATHER SERVICE MEMPHIS TN
500 PM CST SUN JAN 25 2015

TNZ002-004-019-021-049-052-054-088>092-260000-
WEST TENNESSEE

CITY           SKY/WX    TMP DP  RH WIND       PRES   REMARKS
MEMPHIS INTL   MOCLDY    50  39  66 W23G31    29.76R
NWS MEMPHIS      N/A     48 N/A N/A MISG        N/A
JACKSON        CLOUDY    47  43  86 SW10      29.72R
DYERSBURG      CLOUDY    45  32  61 W5        29.73S
UNION CITY     CLOUDY    45  45 100 SW8       29.68R
PARIS          MOCLDY    41  39  93 W3        29.69R
LEXINGTON      CLOUDY    46  43  87 SW7       29.70R
SAVANNAH       CLOUDY    52  39  62 W3        29.72R
$$

TNZ008-025-027-028-033-062-065-066-260000-
NORTH MIDDLE TENNESSEE

CITY           SKY/WX    TMP DP  RH WIND       PRES   REMARKS
NASHVILLE      RAIN      49  42  77 W14G22    29.68R
CLARKSVILLE    LGT RAIN  42  39  89 W16G23    29.67R
SMYRNA         LGT RAIN  48  42  80 SW12      29.68R
COOKEVILLE     CLOUDY    48  39  71 SW10      29.65R
CROSSVILLE     CLOUDY    47  35  63 VRB6      29.67F
$$

TNZ061-075-076-078-094-096-097-260000-
SOUTH MIDDLE TENNESSEE

CITY           SKY/WX    TMP DP  RH WIND       PRES   REMARKS
FAYETTEVILLE   CLOUDY    48  37  66 MISG      29.70R
TULLAHOMA      CLOUDY    46  39  76 S7        29.70R
WINCHESTER     CLOUDY    48  39  71 SW6       29.71R
MCMINNVILLE    CLOUDY    50  37  62 SW7       29.68R
COLUMBIA       MOCLDY    46  46 100 W6        29.68R
SHELBYVILLE    CLOUDY    50  41  71 S10       29.68S
$$

TNZ017-018-042-046-047-260000-
NORTHEAST TENNESSEE

CITY           SKY/WX    TMP DP  RH WIND       PRES   REMARKS
TRI CITIES     CLOUDY    49  31  49 NW3       29.71S
ELIZABETHTON   MOCLDY    43  36  75 CALM      29.70S
$$

TNZ012-013-036-069-073-074-260000-
CENTRAL EAST TENNESSEE

CITY           SKY/WX    TMP DP  RH WIND       PRES   REMARKS
KNOXVILLE      CLOUDY    50  32  50 W8        29.69R
OAK RIDGE      CLOUDY    52  32  46 W7        29.71R
GATLINBURG     CLOUDY    52  30  43 CALM      29.68S
MORRISTOWN     PTCLDY    48  34  57 E6        29.69F
$$

TNZ083-085-099-260000-
SOUTHEAST TENNESSEE

CITY           SKY/WX    TMP DP  RH WIND       PRES   REMARKS
CHATTANOOGA    CLOUDY    55  33  43 SW6       29.72R
$$

SKY/WX REPORTED AS FAIR MEANS FEW OR NO CLOUDS BELOW
12 THOUSAND FEET.




USA.gov is the U.S. government's official web portal to all federal, state and local government web resources and services.